Location: Bukit Setapoh
(2.2500°N, 113.8000°E)
Time: 23:08:00
(UTC+00:00)

Cosmos 2058 Rocket - Pass Details

Date: 25 July 2021
Orbit: 611 x 638 km, 82.5° (Epoch: 18 September)

Event Time Altitude Azimuth Distance (km) Brightness Sun altitude
Rises 11:29:56 0° 352° (N) 2,875 6.9 -13.0°
Reaches altitude 10° 11:32:09 10° 349° (N) 1,976 6.1 -13.5°
Maximum altitude 11:36:30 68° 266° (W) 670 3.4 -14.5°
Drops below altitude 10° 11:40:54 10° 183° (S) 2,000 5.5 -15.6°
Sets 11:43:09 0° 181° (S) 2,913 6.3 -16.1°
